SL-14 DEB, 45325

Orbit data source: Space-Track

SL-14 DEB, 45325 is space debris in LEO originally from a launch on Thu, 15 Aug 1991 UTC launched from the Plesetsk Missile And Space Complex (PKMTR). Debris objects in space refer to the collection of defunct objects orbiting the Earth. Examples of debris include non-operational satellites, rocket bodies, and fragments generated from explosions, collisions, or faulty payload assembly.

Loading next visibility...
Identifier
45325, 1991-056BP
Orbit
LEO
Country
Flag of CISCIS
Related business
Manufacturer
Unknown
Mission
Spacecraft
Bus & Motor
Unknown
Mass
Unknown
Launch date (UTC)
1991-08-15 (35 years ago)
Launch vehicle
Unknown
Launch site
Plesetsk Missile And Space Complex (PKMTR)
Object type
Payload
Rocket body
Debris
Shape & HBR
Unknown shape, 0.1 m
Radar Cross Section
Medium (>0.1 m² and <1 m²)

Expand to show TLE details & history
Last TLE update: 6 days ago

TLE from 6 days ago
0 SL-14 DEB
1 45325U 91056BP  26154.45750309  .00084429  00000-0  19919-1 0  9998
2 45325  82.5239 304.9262 0087775 106.3964 254.6905 14.51383947316498
Epoch: 2026-06-03T10:58Z
TLE epoch observation values (Epoch: 2026-06-03T10:58:48.266Z)
Latitude
-0.00007°
Longitude
-111.69076°
Altitude
741.091 km
Speed
7.475 km/s
True Right ascension
20h 19m 42s
True Declination
0° 00' 00"
Sunlit
Object was in full shadow at epoch
Visualization orbit readout
Latitude
Unknown
Longitude
Unknown
Altitude
Unknown
Speed
Unknown
Apparent Right ascension
Unknown
Apparent Declination
Unknown
Sunlit
N/A
Visualization observer readout
Local Sidereal Time
06:12:00
Azimuth
Unknown
Elevation
Unknown
Doppler factor
Unknown
Orbital elements
Apogee altitude
780.481 km
Perigee altitude
655.905 km
Semi-major axis
7,096.33 km
Eccentricity
0.00878
Inclination
82.5239°
RAAN
304.9262°
Arg. of periapsis
106.3964°
True anomaly
253.72321°
Mean anomaly
254.6905°
Eccentric anomaly
254.20657°
Mean motion
3.63072 °/min
Orbital period
99.15 mins
BSTAR
0.019919
Loading maneuver chart data...
Computing Atmospheric mass density...
Loading historical data...
Loading historical data...
Loading historical data...
Loading historical data...
Loading historical data...
Loading historical data...
Loading historical data...

Documentation

Showing up to 5 results
|